Location: Catstown
(52.4386°N, 7.2633°W)
Time: 03:17:13
(UTC+00:00)

SL-14 R/B - Pass Details

Date: 18 September 2020
Orbit: 518 x 554 km, 82.4° (Epoch: 18 October)

Event Time Altitude Azimuth Distance (km) Brightness Sun altitude
Rises 20:45:36 0° 352° (N) 2,671 7.4 -19.6°
Reaches altitude 10° 20:47:47 10° 357° (N) 1,781 6.3 -19.9°
Enters shadow 20:51:34 55° 72° (ENE) 648 3.4 -20.4°
